Helicity
120 98 97 91 84 107 116 111 76 98 133 143 143 147 161 166 169 173 173 211 163 118 140 145 109 82 79
127 118 89 70 80 87 102 106 102 115 146 131 137 132 123 137 140 151 175 166 155 140 127 162 147 115 98
138 109 78 80 104 113 117 117 103 100 102 104 119 110 113 114 122 131 138 132 163 156 156 171 180 148 107
146 121 83 67 92 100 112 117 130 109 93 73 48 62 73 73 60 55 67 109 137 148 137 104 163 188 123
152 133 116 109 105 101 119 102 116 115 105 95 81 73 61 43 37 35 77 115 127 138 144 127 82 160 172
167 151 119 94 94 91 95 87 104 57 82 93 81 86 89 59 21 60 66 102 119 105 106 124 106 92 147
150 144 121 91 86 92 75 80 77 79 72 68 75 77 69 59 48 75 60 68 88 109 91 72 88 72 96
119 113 97 85 101 97 81 75 63 57 60 78 76 69 49 58 36 35 33 48 86 68 65 107 62 56 55
69 57 47 46 55 87 78 68 63 56 63 104 72 54 53 67 44 59 73 57 61 63 69 85 140 82 39
108 93 84 80 57 86 89 82 75 69 73 82 68 47 20 67 35 39 99 37 38 58 84 111 76 21 36
118 115 96 84 78 69 71 88 85 84 87 95 95 56 67 59 30 29 45 21 36 29 38 65 116 88 50
110 100 113 104 81 66 58 70 87 100 87 106 135 133 79 50 24 14 23 -2 -11 -4 32 59 66 127 102
97 103 132 143 98 63 52 47 63 72 94 120 147 112 82 63 30 -9 -6 -17 -12 -12 13 64 44 67 98
106 107 138 129 123 102 80 59 50 54 71 88 108 120 73 63 17 -11 -5 -25 3 14 28 44 36 33 66
120 115 119 119 118 106 87 73 57 62 76 93 90 79 76 34 -0 -12 -6 18 18 6 -5 21 -1 29 55
102 96 106 107 105 87 85 81 73 69 68 79 82 52 44 55 -40 -15 -1 -1 10 9 -1 4 31 18 40
50 80 98 89 82 96 86 77 58 58 72 76 70 57 11 11 5 -18 -2 40 34 16 2 -6 24 34 48
Wind_Speed
82 84 85 87 88 88 86 84 82 89 89 90 89 90 92 92 91 95 95 95 92 91 90 90 89 83 78
87 86 86 86 86 87 85 84 87 88 91 89 91 90 90 92 96 95 96 96 97 98 97 97 96 91 85
91 82 82 84 88 88 88 87 83 84 87 88 89 88 90 91 93 97 99 98 99 96 94 96 97 95 89
89 90 86 88 90 96 96 89 91 87 85 84 83 86 92 93 93 95 98 99 100 100 100 99 99 98 94
91 92 96 98 99 95 97 95 89 84 82 80 82 89 87 87 87 89 93 96 99 100 101 101 100 97 97
92 96 94 93 91 90 91 95 101 77 76 90 80 86 83 82 83 90 93 97 99 99 100 100 99 95 94
87 87 88 86 87 87 86 87 89 83 79 88 82 85 82 81 86 92 90 86 86 91 93 93 94 93 92
74 76 76 77 73 76 79 80 79 79 74 81 75 80 80 83 85 82 81 81 89 88 86 83 82 77 81
70 72 74 71 70 71 75 77 79 76 67 67 68 83 85 85 72 76 77 85 85 84 82 79 78 77 82
69 66 65 64 64 60 67 69 70 69 58 72 80 76 81 70 68 74 72 80 80 81 78 77 79 78 82
66 64 63 61 59 61 62 55 64 66 64 62 70 74 69 82 76 77 74 76 76 74 72 70 72 73 71
66 66 64 58 56 56 57 57 57 55 59 58 61 66 72 77 83 72 75 76 71 68 65 65 64 65 64
63 62 56 49 52 54 55 60 59 60 50 51 49 55 62 68 77 73 75 69 62 64 63 59 56 54 58
56 58 55 51 53 55 57 60 61 59 52 48 45 47 62 60 69 71 67 62 63 60 57 53 49 45 46
52 56 54 51 50 49 51 57 59 60 59 53 50 48 50 62 67 62 61 58 57 56 52 49 44 40 36
50 49 42 50 55 52 52 56 62 60 60 58 56 61 58 59 55 60 58 56 55 53 50 48 46 41 38
51 47 47 51 53 48 53 56 60 58 59 58 58 59 67 66 59 52 57 56 55 53 48 46 46 45 43
Wind_Direction
318 320 319 319 318 318 315 314 314 312 311 311 310 307 305 303 302 301 300 297 294 293 292 291 288 288 288
317 318 318 319 318 318 318 316 316 314 312 311 310 309 307 304 302 301 299 296 292 290 288 288 285 283 282
315 318 318 319 318 317 316 315 315 315 314 312 310 309 308 306 304 301 299 295 293 290 288 286 284 280 278
315 315 317 318 317 314 313 314 313 313 312 312 311 311 309 307 306 302 300 295 293 290 286 283 281 278 273
314 315 315 316 315 315 312 313 314 314 312 312 313 313 312 310 308 306 302 299 294 290 286 282 279 276 272
314 314 315 316 317 316 315 314 311 315 313 310 313 311 313 311 309 307 304 300 296 291 286 282 278 273 272
314 315 316 318 318 316 316 315 313 314 315 311 312 311 311 311 312 309 308 305 303 300 293 284 279 273 268
316 316 317 318 318 318 318 317 316 315 317 313 315 313 315 314 313 311 311 309 306 303 297 292 282 277 274
317 316 317 318 319 320 319 319 318 318 321 319 321 318 316 315 318 315 313 311 306 304 299 290 282 276 270
319 319 319 319 320 321 321 319 319 321 328 322 321 324 318 319 320 316 315 311 304 301 295 287 277 273 264
317 318 317 318 320 321 322 322 320 320 326 328 326 325 323 316 313 310 312 308 301 296 293 286 277 267 258
317 315 315 316 319 321 323 325 326 323 325 330 329 329 326 318 305 306 304 301 293 292 295 292 283 269 255
315 314 314 316 317 320 324 327 326 326 328 333 335 337 332 321 305 297 296 298 289 294 288 288 288 279 254
314 314 314 313 314 318 321 324 325 328 333 336 341 343 333 332 307 286 288 291 285 287 283 280 292 286 264
317 314 312 311 314 319 321 321 321 324 328 334 338 342 342 329 299 282 284 283 287 288 284 278 283 289 275
320 317 316 316 315 317 319 319 317 320 322 329 335 331 329 329 305 286 285 284 285 287 286 284 283 283 276
327 325 322 320 318 318 317 318 317 319 318 323 327 328 312 307 310 295 287 285 286 286 283 284 281 278 272